Retour au catalogue

IRIDIUM 33 DEB

ActifPO
NORAD 36028·DEBRIS·🇺🇸 United States

Lancé Sep 14, 1997 depuis Baikonur Cosmodrome

Loading…

Prochains Passages (prochaines 24 heures)

TLE

VieillissantSource: Space-Track

Époque: Sep 10, 2026, 02:21 UTC

1 36028U 97051VK  26253.09846592  .00021747  00000-0  13791-2 0  9996
2 36028  86.3114 177.5606 0015490 134.5241 225.7264 15.08708147911993

Suivez IRIDIUM 33 DEB en temps réel avec AllMySat

Download on the App Store